Back to catalog

THORAD AGENA D DEB

AliveLEO
NORAD 4468·DEBRIS·🇺🇸 United States

Launched Sep 30, 1969 from Vandenberg Space Force Base

Loading…

Next Passes (next 24 hours)

TLE

FreshSource: Space-Track

Epoch: Sep 14, 2026, 08:37 UTC

1 04468U 69082FM  26257.35972022  .00000128  00000-0  15107-3 0  9997
2 04468  70.0718 280.2305 0082961 131.9304 228.8909 13.86139177868190

Track THORAD AGENA D DEB in real time with AllMySat

Download on the App Store